User: anonymous   Login
Location: B?jaj?g
(11.7167°N, 92.6667°E)
Time: 17:15:55
(UTC+00:00)
Language:

Cosmos 1802 Rocket - Orbit

View from above orbital plane
View from above orbital plane
View from above satellite
View from above satellite

Ground track
Ground track

The orbit data is extracted from the following two-line orbital elements,

1 17160U 86093B   21125.92759514 -.00000012  00000-0 -29277-4 0  9990
2 17160  82.9261  91.7907 0039402 152.9787 261.3428 13.74644088727518
Epoch (UTC): 05 May 2021 22:15:44
Eccentricity: 0.0039402
inclination: 82.9261°
perigee height: 954 km
apogee height: 1012 km
right ascension of ascending node: 91.7907°
argument of perigee: 152.9787°
revolutions per day: 13.74644088
mean anomaly at epoch: 261.3428°
orbit number at epoch: 72751

The dashed part of the orbit path shows where the satellite is in the earth's shadow,  

DLR